Location: Bonny Doon Airfield
(37.0704°N, 122.1252°W)
Time: 13:52:18
(UTC-07:00)

OTV 5 (USA 277) - Pass Details

Date: 12 October 2017
Orbit: 404 x 417 km, 43.0° (Epoch: 07 September)

Event Time Altitude Azimuth Distance (km) Brightness Sun altitude
Rises 19:42:57 0° 264° (W) 2,348 ? -14.3°
Reaches altitude 10° 19:45:07 10° 271° (W) 1,487 ? -14.7°
Maximum altitude 19:48:21 42° 344° (NNW) 604 ? -15.4°
Enters shadow 19:49:55 24° 42° (NE) 899 ? -15.7°
